Time,TemperatureF,DewpointF,PressureIn,WindDirection,WindDirectionDegrees,WindSpeedMPH,WindSpeedGustMPH,Humidity,HourlyPrecipIn,Conditions,Clouds,dailyrainin,SoftwareType,DateUTC
2013-05-11 00:00:00,58.6,58.0,29.94,SSW,198,0.0,0.0,98,0.00,,,0.00,Wunderground v.1.15,2013-05-11 04:00:00,
2013-05-11 00:05:00,58.4,57.8,29.94,SSW,198,0.0,0.0,98,0.00,,,0.00,Wunderground v.1.15,2013-05-11 04:05:00,
2013-05-11 00:10:00,58.3,57.7,29.94,SSW,198,0.0,0.0,98,0.00,,,0.00,Wunderground v.1.15,2013-05-11 04:10:00,
2013-05-11 00:20:00,58.1,57.5,29.94,SSW,198,0.0,0.0,98,0.00,,,0.00,Wunderground v.1.15,2013-05-11 04:20:00,
2013-05-11 00:25:00,58.1,57.5,29.93,SSW,198,0.0,0.0,98,0.00,,,0.00,Wunderground v.1.15,2013-05-11 04:25:00,
2013-05-11 00:30:00,58.0,57.4,29.93,SSW,198,0.0,0.0,98,0.00,,,0.00,Wunderground v.1.15,2013-05-11 04:30:00,
2013-05-11 00:40:00,57.8,57.2,29.93,SSW,198,0.0,0.0,98,0.00,,,0.00,Wunderground v.1.15,2013-05-11 04:40:00,
2013-05-11 00:45:00,57.8,57.2,29.93,SSW,198,0.0,0.0,98,0.00,,,0.00,Wunderground v.1.15,2013-05-11 04:45:00,
2013-05-11 00:55:00,57.8,57.2,29.92,SSW,198,0.0,0.0,98,0.00,,,0.00,Wunderground v.1.15,2013-05-11 04:55:00,
2013-05-11 01:05:00,57.8,57.5,29.92,SSW,198,0.0,0.0,99,0.00,,,0.00,Wunderground v.1.15,2013-05-11 05:05:00,
2013-05-11 01:10:00,58.0,57.7,29.92,SSW,198,0.0,0.0,99,0.00,,,0.00,Wunderground v.1.15,2013-05-11 05:10:00,
2013-05-11 01:20:00,57.8,57.5,29.92,SSW,198,0.0,0.0,99,0.00,,,0.00,Wunderground v.1.15,2013-05-11 05:20:00,
2013-05-11 01:30:00,57.8,57.5,29.92,SSW,198,0.0,0.0,99,0.00,,,0.00,Wunderground v.1.15,2013-05-11 05:30:00,
2013-05-11 01:35:00,57.8,57.5,29.91,SSW,198,0.0,0.0,99,0.00,,,0.00,Wunderground v.1.15,2013-05-11 05:35:00,
2013-05-11 01:40:00,58.0,57.7,29.91,SSW,198,0.0,0.0,99,0.00,,,0.00,Wunderground v.1.15,2013-05-11 05:40:00,
2013-05-11 01:50:00,58.0,57.7,29.91,SSW,198,0.0,0.0,99,0.00,,,0.00,Wunderground v.1.15,2013-05-11 05:50:00,
2013-05-11 02:00:00,57.8,57.5,29.91,SSW,198,0.0,0.0,99,0.00,,,0.00,Wunderground v.1.15,2013-05-11 06:00:00,
2013-05-11 02:05:00,57.8,57.5,29.91,SSW,198,0.0,0.0,99,0.00,,,0.00,Wunderground v.1.15,2013-05-11 06:05:00,
2013-05-11 02:10:00,57.6,57.3,29.90,SSW,198,0.0,0.0,99,0.00,,,0.00,Wunderground v.1.15,2013-05-11 06:10:00,
2013-05-11 02:20:00,57.6,57.3,29.90,SSW,198,0.0,0.0,99,0.00,,,0.00,Wunderground v.1.15,2013-05-11 06:20:00,
2013-05-11 02:30:00,57.6,57.3,29.89,SSW,198,0.0,0.0,99,0.00,,,0.00,Wunderground v.1.15,2013-05-11 06:30:00,
2013-05-11 02:40:00,57.5,57.2,29.89,SSW,198,0.0,0.0,99,0.00,,,0.00,Wunderground v.1.15,2013-05-11 06:40:00,
2013-05-11 02:50:00,57.6,57.3,29.89,SSW,198,0.0,0.0,99,0.00,,,0.00,Wunderground v.1.15,2013-05-11 06:50:00,
2013-05-11 02:55:00,57.8,57.5,29.89,SSW,198,0.0,0.0,99,0.00,,,0.00,Wunderground v.1.15,2013-05-11 06:55:00,
2013-05-11 03:00:00,58.0,57.7,29.89,SSW,198,0.0,0.0,99,0.00,,,0.00,Wunderground v.1.15,2013-05-11 07:00:00,
2013-05-11 03:10:00,58.0,57.7,29.88,SSW,198,0.0,0.0,99,0.00,,,0.00,Wunderground v.1.15,2013-05-11 07:10:00,
2013-05-11 03:20:00,58.0,57.7,29.88,SSW,198,0.0,0.0,99,0.00,,,0.00,Wunderground v.1.15,2013-05-11 07:20:00,
2013-05-11 03:25:00,58.1,57.8,29.88,SSW,198,0.0,0.0,99,0.00,,,0.00,Wunderground v.1.15,2013-05-11 07:25:00,
2013-05-11 03:35:00,58.0,57.7,29.88,SSW,198,0.0,0.0,99,0.00,,,0.00,Wunderground v.1.15,2013-05-11 07:35:00,
2013-05-11 03:40:00,57.8,57.5,29.89,SSW,198,0.0,0.0,99,0.00,,,0.00,Wunderground v.1.15,2013-05-11 07:40:00,
2013-05-11 03:50:00,57.5,57.2,29.89,SSW,198,0.0,0.0,99,0.00,,,0.00,Wunderground v.1.15,2013-05-11 07:50:00,
2013-05-11 03:55:00,57.5,57.2,29.88,SSW,198,0.0,0.0,99,0.00,,,0.00,Wunderground v.1.15,2013-05-11 07:55:00,
2013-05-11 04:00:00,57.3,57.0,29.88,SSW,198,0.0,0.0,99,0.00,,,0.00,Wunderground v.1.15,2013-05-11 08:00:00,
2013-05-11 04:10:00,56.9,56.6,29.87,SSW,198,0.0,0.0,99,0.00,,,0.00,Wunderground v.1.15,2013-05-11 08:10:00,
2013-05-11 04:20:00,56.6,56.3,29.88,SSW,198,0.0,0.0,99,0.00,,,0.00,Wunderground v.1.15,2013-05-11 08:20:00,
2013-05-11 04:30:00,56.2,55.9,29.88,SSW,198,0.0,0.0,99,0.00,,,0.00,Wunderground v.1.15,2013-05-11 08:30:00,
2013-05-11 04:40:00,56.3,56.3,29.88,SSW,198,0.0,0.0,100,0.00,,,0.00,Wunderground v.1.15,2013-05-11 08:40:00,
2013-05-11 04:50:00,56.7,56.7,29.87,SSW,198,0.0,0.0,100,0.00,,,0.00,Wunderground v.1.15,2013-05-11 08:50:00,
2013-05-11 05:00:00,57.0,56.7,29.87,SSW,198,0.0,0.0,99,0.00,,,0.00,Wunderground v.1.15,2013-05-11 09:00:00,
2013-05-11 05:10:00,57.0,56.7,29.87,SSW,198,0.0,0.0,99,0.00,,,0.00,Wunderground v.1.15,2013-05-11 09:10:00,
2013-05-11 05:20:00,57.2,56.9,29.87,SSW,198,0.0,0.0,99,0.00,,,0.00,Wunderground v.1.15,2013-05-11 09:20:00,
2013-05-11 05:30:00,57.0,56.7,29.87,SSW,198,0.0,0.0,99,0.00,,,0.00,Wunderground v.1.15,2013-05-11 09:30:00,
2013-05-11 05:35:00,57.0,56.7,29.87,SSW,198,0.0,0.0,99,0.00,,,0.00,Wunderground v.1.15,2013-05-11 09:35:00,
2013-05-11 05:45:00,57.2,57.2,29.86,SSW,198,0.0,0.0,100,0.00,,,0.00,Wunderground v.1.15,2013-05-11 09:45:00,
2013-05-11 05:50:00,57.2,56.9,29.87,SSW,198,0.0,0.0,99,0.00,,,0.00,Wunderground v.1.15,2013-05-11 09:50:00,
2013-05-11 06:00:00,57.2,56.9,29.87,SSW,198,0.0,0.0,99,0.00,,,0.00,Wunderground v.1.15,2013-05-11 10:00:00,
2013-05-11 06:10:00,57.2,56.9,29.87,SSW,198,0.0,0.0,99,0.00,,,0.00,Wunderground v.1.15,2013-05-11 10:10:00,
2013-05-11 06:20:00,57.0,56.7,29.88,SSW,198,0.0,0.0,99,0.00,,,0.00,Wunderground v.1.15,2013-05-11 10:20:00,
2013-05-11 06:30:00,57.0,56.7,29.88,SSW,198,1.0,2.0,99,0.00,,,0.00,Wunderground v.1.15,2013-05-11 10:30:00,
2013-05-11 06:40:00,57.3,57.0,29.88,SSW,207,1.0,1.0,99,0.00,,,0.00,Wunderground v.1.15,2013-05-11 10:40:00,
2013-05-11 06:50:00,57.5,56.9,29.87,SSW,208,1.0,1.0,98,0.00,,,0.00,Wunderground v.1.15,2013-05-11 10:50:00,
2013-05-11 07:00:00,57.6,56.8,29.87,SSW,208,0.0,0.0,97,0.00,,,0.00,Wunderground v.1.15,2013-05-11 11:00:00,
2013-05-11 07:05:00,57.6,56.8,29.87,SSW,208,0.0,0.0,97,0.00,,,0.00,Wunderground v.1.15,2013-05-11 11:05:00,
2013-05-11 07:10:00,57.6,57.0,29.87,SSW,208,0.0,0.0,98,0.00,,,0.00,Wunderground v.1.15,2013-05-11 11:10:00,
2013-05-11 07:20:00,58.0,57.4,29.87,SSW,208,0.0,0.0,98,0.00,,,0.00,Wunderground v.1.15,2013-05-11 11:20:00,
2013-05-11 07:25:00,58.1,57.3,29.87,SSW,209,0.0,0.0,97,0.00,,,0.00,Wunderground v.1.15,2013-05-11 11:25:00,
2013-05-11 07:30:00,58.3,57.5,29.87,SSW,204,1.0,1.0,97,0.00,,,0.00,Wunderground v.1.15,2013-05-11 11:30:00,
2013-05-11 07:40:00,58.4,57.3,29.88,SW,216,0.0,2.0,96,0.00,,,0.00,Wunderground v.1.15,2013-05-11 11:40:00,
2013-05-11 07:50:00,58.4,57.3,29.87,SSW,210,2.0,2.0,96,0.00,,,0.00,Wunderground v.1.15,2013-05-11 11:50:00,
2013-05-11 07:55:00,58.4,57.3,29.87,South,189,1.0,2.0,96,0.00,,,0.00,Wunderground v.1.15,2013-05-11 11:55:00,
2013-05-11 08:05:00,58.4,57.3,29.87,SSW,198,0.0,2.0,96,0.00,,,0.00,Wunderground v.1.15,2013-05-11 12:05:00,
2013-05-11 08:10:00,58.6,57.5,29.86,SW,223,1.0,4.0,96,0.00,,,0.00,Wunderground v.1.15,2013-05-11 12:10:00,
2013-05-11 08:20:00,58.7,57.6,29.87,SSW,207,1.0,1.0,96,0.00,,,0.00,Wunderground v.1.15,2013-05-11 12:20:00,
2013-05-11 08:30:00,58.6,57.5,29.87,SSW,200,1.0,4.0,96,0.00,,,0.00,Wunderground v.1.15,2013-05-11 12:30:00,
2013-05-11 08:40:00,58.6,57.5,29.87,SSW,193,1.0,1.0,96,0.00,,,0.01,Wunderground v.1.15,2013-05-11 12:40:00,
2013-05-11 08:50:00,58.4,57.3,29.87,SSW,207,2.0,2.0,96,0.06,,,0.02,Wunderground v.1.15,2013-05-11 12:50:00,
2013-05-11 09:00:00,58.6,57.8,29.87,SSW,194,1.0,1.0,97,0.07,,,0.03,Wunderground v.1.15,2013-05-11 13:00:00,
2013-05-11 09:10:00,58.3,57.5,29.88,South,189,2.0,2.0,97,0.07,,,0.04,Wunderground v.1.15,2013-05-11 13:10:00,
2013-05-11 09:20:00,58.1,57.5,29.88,South,178,3.0,7.0,98,0.05,,,0.05,Wunderground v.1.15,2013-05-11 13:20:00,
2013-05-11 09:30:00,57.8,57.2,29.88,SSW,195,4.0,4.0,98,0.04,,,0.05,Wunderground v.1.15,2013-05-11 13:30:00,
2013-05-11 09:40:00,57.8,57.2,29.88,SSW,203,4.0,4.0,98,0.00,,,0.05,Wunderground v.1.15,2013-05-11 13:40:00,
2013-05-11 09:50:00,58.0,57.7,29.88,SSW,210,4.0,4.0,99,0.00,,,0.05,Wunderground v.1.15,2013-05-11 13:50:00,
2013-05-11 10:00:00,58.1,57.8,29.87,SSW,200,3.0,3.0,99,0.00,,,0.05,Wunderground v.1.15,2013-05-11 14:00:00,
2013-05-11 10:10:00,58.3,58.0,29.87,SW,217,2.0,4.0,99,0.00,,,0.06,Wunderground v.1.15,2013-05-11 14:10:00,
2013-05-11 10:20:00,58.3,58.0,29.87,SSW,192,3.0,6.0,99,0.00,,,0.06,Wunderground v.1.15,2013-05-11 14:20:00,
2013-05-11 10:25:00,58.4,58.1,29.87,SSW,201,3.0,6.0,99,0.00,,,0.06,Wunderground v.1.15,2013-05-11 14:25:00,
2013-05-11 10:30:00,58.6,58.3,29.87,SW,219,3.0,5.0,99,0.00,,,0.06,Wunderground v.1.15,2013-05-11 14:30:00,
2013-05-11 10:40:00,58.9,58.6,29.87,SSW,201,3.0,3.0,99,0.00,,,0.06,Wunderground v.1.15,2013-05-11 14:40:00,
2013-05-11 10:45:00,58.9,58.6,29.87,SSW,203,3.0,3.0,99,0.00,,,0.06,Wunderground v.1.15,2013-05-11 14:45:00,
2013-05-11 10:55:00,59.0,58.7,29.88,South,190,2.0,8.0,99,0.00,,,0.06,Wunderground v.1.15,2013-05-11 14:55:00,
2013-05-11 11:05:00,59.0,58.7,29.88,SSW,198,3.0,4.0,99,0.00,,,0.06,Wunderground v.1.15,2013-05-11 15:05:00,
2013-05-11 11:10:00,59.2,58.9,29.88,SSW,194,4.0,4.0,99,0.00,,,0.06,Wunderground v.1.15,2013-05-11 15:10:00,
2013-05-11 11:20:00,59.3,59.0,29.88,SW,230,4.0,6.0,99,0.00,,,0.07,Wunderground v.1.15,2013-05-11 15:20:00,
2013-05-11 11:25:00,59.2,58.6,29.89,SSW,213,5.0,7.0,98,0.00,,,0.07,Wunderground v.1.15,2013-05-11 15:25:00,
2013-05-11 11:35:00,59.5,58.9,29.89,SW,215,5.0,6.0,98,0.00,,,0.07,Wunderground v.1.15,2013-05-11 15:35:00,
2013-05-11 11:45:00,59.8,59.2,29.88,SSW,212,2.0,4.0,98,0.00,,,0.08,Wunderground v.1.15,2013-05-11 15:45:00,
2013-05-11 11:55:00,59.5,58.9,29.88,SSW,212,3.0,5.0,98,0.09,,,0.09,Wunderground v.1.15,2013-05-11 15:55:00,
2013-05-11 12:00:00,59.5,58.9,29.88,SSW,206,2.0,2.0,98,0.07,,,0.09,Wunderground v.1.15,2013-05-11 16:00:00,
2013-05-11 12:05:00,59.3,59.0,29.88,SSW,200,1.0,2.0,99,0.04,,,0.09,Wunderground v.1.15,2013-05-11 16:05:00,
2013-05-11 12:10:00,59.5,59.2,29.89,South,175,2.0,6.0,99,0.00,,,0.09,Wunderground v.1.15,2013-05-11 16:10:00,
2013-05-11 12:15:00,59.8,59.5,29.89,SSW,209,3.0,6.0,99,0.00,,,0.09,Wunderground v.1.15,2013-05-11 16:15:00,
2013-05-11 12:25:00,60.1,59.8,29.89,SSW,196,3.0,5.0,99,0.00,,,0.09,Wunderground v.1.15,2013-05-11 16:25:00,
2013-05-11 12:30:00,60.2,59.6,29.88,SSW,210,4.0,6.0,98,0.00,,,0.09,Wunderground v.1.15,2013-05-11 16:30:00,
2013-05-11 12:40:00,60.4,59.8,29.88,SW,219,4.0,4.0,98,0.00,,,0.09,Wunderground v.1.15,2013-05-11 16:40:00,
2013-05-11 12:45:00,61.0,60.4,29.88,South,177,3.0,4.0,98,0.00,,,0.09,Wunderground v.1.15,2013-05-11 16:45:00,
2013-05-11 12:55:00,62.1,61.5,29.87,SSW,209,3.0,7.0,98,0.00,,,0.09,Wunderground v.1.15,2013-05-11 16:55:00,
2013-05-11 13:00:00,62.0,60.8,29.87,SSW,209,4.0,4.0,96,0.00,,,0.09,Wunderground v.1.15,2013-05-11 17:00:00,
2013-05-11 13:10:00,61.8,60.4,29.86,SSW,193,4.0,4.0,95,0.00,,,0.09,Wunderground v.1.15,2013-05-11 17:10:00,
2013-05-11 13:20:00,62.6,60.5,29.87,SSW,199,3.0,3.0,93,0.00,,,0.09,Wunderground v.1.15,2013-05-11 17:20:00,
2013-05-11 13:30:00,63.5,61.1,29.86,SSW,193,6.0,6.0,92,0.00,,,0.09,Wunderground v.1.15,2013-05-11 17:30:00,
2013-05-11 13:40:00,64.5,61.5,29.86,South,185,5.0,5.0,90,0.00,,,0.09,Wunderground v.1.15,2013-05-11 17:40:00,
2013-05-11 13:45:00,64.8,61.5,29.86,South,190,6.0,6.0,89,0.00,,,0.09,Wunderground v.1.15,2013-05-11 17:45:00,
2013-05-11 13:50:00,64.8,61.2,29.86,SSW,209,6.0,6.0,88,0.00,,,0.09,Wunderground v.1.15,2013-05-11 17:50:00,
2013-05-11 14:00:00,65.0,60.7,29.85,South,181,5.0,5.0,86,0.00,,,0.09,Wunderground v.1.15,2013-05-11 18:00:00,
2013-05-11 14:10:00,65.3,61.7,29.85,SSW,194,4.0,7.0,88,0.00,,,0.09,Wunderground v.1.15,2013-05-11 18:10:00,
2013-05-11 14:15:00,66.1,61.5,29.85,SSW,208,6.0,9.0,85,0.00,,,0.09,Wunderground v.1.15,2013-05-11 18:15:00,
2013-05-11 14:20:00,66.3,61.7,29.85,SW,221,6.0,6.0,85,0.00,,,0.09,Wunderground v.1.15,2013-05-11 18:20:00,
2013-05-11 14:30:00,65.8,60.5,29.85,SSW,198,4.0,4.0,83,0.00,,,0.09,Wunderground v.1.15,2013-05-11 18:30:00,
2013-05-11 14:40:00,66.8,61.8,29.84,SSW,194,3.0,7.0,84,0.00,,,0.09,Wunderground v.1.15,2013-05-11 18:40:00,
2013-05-11 14:50:00,66.9,60.5,29.83,South,187,7.0,7.0,80,0.00,,,0.09,Wunderground v.1.15,2013-05-11 18:50:00,
2013-05-11 15:00:00,66.8,61.5,29.82,SW,225,6.0,6.0,83,0.00,,,0.09,Wunderground v.1.15,2013-05-11 19:00:00,
2013-05-11 15:05:00,67.3,60.9,29.82,SSW,202,5.0,6.0,80,0.00,,,0.09,Wunderground v.1.15,2013-05-11 19:05:00,
2013-05-11 15:15:00,67.9,61.5,29.82,South,188,5.0,5.0,80,0.00,,,0.09,Wunderground v.1.15,2013-05-11 19:15:00,
2013-05-11 15:20:00,68.3,61.2,29.82,South,187,5.0,5.0,78,0.00,,,0.09,Wunderground v.1.15,2013-05-11 19:20:00,
2013-05-11 15:30:00,68.6,61.5,29.82,SSE,162,6.0,6.0,78,0.00,,,0.09,Wunderground v.1.15,2013-05-11 19:30:00,
2013-05-11 15:40:00,69.1,60.8,29.81,SSW,209,5.0,7.0,75,0.00,,,0.09,Wunderground v.1.15,2013-05-11 19:40:00,
2013-05-11 15:50:00,69.1,61.2,29.81,SSW,194,7.0,9.0,76,0.00,,,0.09,Wunderground v.1.15,2013-05-11 19:50:00,
2013-05-11 16:00:00,67.8,60.0,29.81,South,186,6.0,7.0,76,0.00,,,0.09,Wunderground v.1.15,2013-05-11 20:00:00,
2013-05-11 16:05:00,67.3,59.8,29.81,South,179,5.0,7.0,77,0.00,,,0.09,Wunderground v.1.15,2013-05-11 20:05:00,
2013-05-11 16:10:00,66.3,58.9,29.82,SSW,202,6.0,7.0,77,0.00,,,0.09,Wunderground v.1.15,2013-05-11 20:10:00,
2013-05-11 16:20:00,63.7,60.1,29.82,South,186,7.0,7.0,88,0.00,,,0.10,Wunderground v.1.15,2013-05-11 20:20:00,
2013-05-11 16:30:00,62.7,59.4,29.82,SSW,198,4.0,4.0,89,0.00,,,0.10,Wunderground v.1.15,2013-05-11 20:30:00,
2013-05-11 16:40:00,62.1,59.4,29.83,SSW,195,3.0,5.0,91,0.18,,,0.13,Wunderground v.1.15,2013-05-11 20:40:00,
2013-05-11 16:50:00,61.3,59.0,29.82,SSW,207,1.0,1.0,92,0.07,,,0.15,Wunderground v.1.15,2013-05-11 20:50:00,
2013-05-11 17:00:00,61.6,59.9,29.82,SW,230,1.0,1.0,94,0.00,,,0.15,Wunderground v.1.15,2013-05-11 21:00:00,
2013-05-11 17:05:00,61.3,57.7,29.82,WSW,242,2.0,6.0,88,0.00,,,0.15,Wunderground v.1.15,2013-05-11 21:05:00,
2013-05-11 17:10:00,61.2,57.3,29.82,SSW,205,4.0,4.0,87,0.00,,,0.16,Wunderground v.1.15,2013-05-11 21:10:00,
2013-05-11 17:20:00,61.0,57.7,29.82,SW,221,3.0,3.0,89,0.00,,,0.16,Wunderground v.1.15,2013-05-11 21:20:00,
2013-05-11 17:25:00,61.0,58.0,29.82,SW,215,2.0,3.0,90,0.00,,,0.16,Wunderground v.1.15,2013-05-11 21:25:00,
2013-05-11 17:35:00,61.2,58.2,29.82,SSW,201,1.0,3.0,90,0.00,,,0.16,Wunderground v.1.15,2013-05-11 21:35:00,
2013-05-11 17:45:00,61.0,57.7,29.82,SSW,202,2.0,5.0,89,0.00,,,0.16,Wunderground v.1.15,2013-05-11 21:45:00,
2013-05-11 17:55:00,61.0,57.7,29.81,SSW,209,2.0,3.0,89,0.00,,,0.16,Wunderground v.1.15,2013-05-11 21:55:00,
2013-05-11 18:05:00,61.0,57.7,29.82,SW,225,0.0,0.0,89,0.00,,,0.16,Wunderground v.1.15,2013-05-11 22:05:00,
2013-05-11 18:10:00,61.0,57.7,29.81,SW,223,0.0,0.0,89,0.00,,,0.16,Wunderground v.1.15,2013-05-11 22:10:00,
2013-05-11 18:15:00,61.2,58.2,29.82,SW,223,0.0,0.0,90,0.00,,,0.16,Wunderground v.1.15,2013-05-11 22:15:00,
2013-05-11 18:20:00,61.2,58.2,29.82,SW,223,0.0,0.0,90,0.00,,,0.16,Wunderground v.1.15,2013-05-11 22:20:00,
2013-05-11 18:30:00,60.9,57.6,29.82,SW,223,0.0,0.0,89,0.00,,,0.16,Wunderground v.1.15,2013-05-11 22:30:00,
2013-05-11 18:40:00,60.7,57.7,29.81,SW,226,0.0,0.0,90,0.00,,,0.17,Wunderground v.1.15,2013-05-11 22:40:00,
2013-05-11 18:50:00,60.7,58.1,29.81,SW,226,0.0,1.0,91,0.00,,,0.17,Wunderground v.1.15,2013-05-11 22:50:00,
2013-05-11 19:00:00,60.5,58.2,29.82,SW,226,0.0,0.0,92,0.00,,,0.17,Wunderground v.1.15,2013-05-11 23:00:00,
2013-05-11 19:05:00,60.5,58.2,29.82,SW,227,0.0,0.0,92,0.00,,,0.17,Wunderground v.1.15,2013-05-11 23:05:00,
2013-05-11 19:15:00,61.6,59.3,29.81,SW,227,0.0,0.0,92,0.00,,,0.17,Wunderground v.1.15,2013-05-11 23:15:00,
2013-05-11 19:20:00,62.0,59.0,29.81,WNW,296,0.0,0.0,90,0.00,,,0.17,Wunderground v.1.15,2013-05-11 23:20:00,
2013-05-11 19:30:00,62.4,58.8,29.82,WNW,296,0.0,0.0,88,0.00,,,0.17,Wunderground v.1.15,2013-05-11 23:30:00,
2013-05-11 19:40:00,62.0,58.7,29.82,WNW,296,0.0,0.0,89,0.00,,,0.17,Wunderground v.1.15,2013-05-11 23:40:00,
2013-05-11 19:50:00,61.3,58.3,29.82,WNW,296,0.0,0.0,90,0.00,,,0.17,Wunderground v.1.15,2013-05-11 23:50:00,
2013-05-11 20:00:00,60.9,58.3,29.82,WNW,296,0.0,0.0,91,0.00,,,0.17,Wunderground v.1.15,2013-05-12 00:00:00,
2013-05-11 20:10:00,60.9,58.9,29.83,WNW,296,0.0,3.0,93,0.00,,,0.17,Wunderground v.1.15,2013-05-12 00:10:00,
2013-05-11 20:15:00,60.9,58.9,29.83,WNW,296,0.0,3.0,93,0.00,,,0.17,Wunderground v.1.15,2013-05-12 00:15:00,
2013-05-11 20:20:00,60.7,59.0,29.83,SSW,208,1.0,2.0,94,0.00,,,0.17,Wunderground v.1.15,2013-05-12 00:20:00,
2013-05-11 20:30:00,60.1,58.1,29.83,SW,224,1.0,1.0,93,0.00,,,0.17,Wunderground v.1.15,2013-05-12 00:30:00,
2013-05-11 20:40:00,59.5,57.5,29.83,SSW,213,1.0,1.0,93,0.00,,,0.17,Wunderground v.1.15,2013-05-12 00:40:00,
2013-05-11 20:45:00,59.2,57.2,29.83,SSW,213,1.0,5.0,93,0.00,,,0.17,Wunderground v.1.15,2013-05-12 00:45:00,
2013-05-11 20:50:00,58.9,56.6,29.83,SW,216,1.0,1.0,92,0.00,,,0.17,Wunderground v.1.15,2013-05-12 00:50:00,
2013-05-11 21:00:00,58.9,56.9,29.84,SSW,211,1.0,1.0,93,0.00,,,0.17,Wunderground v.1.15,2013-05-12 01:00:00,
2013-05-11 21:10:00,58.9,56.6,29.84,WSW,252,0.0,0.0,92,0.00,,,0.17,Wunderground v.1.15,2013-05-12 01:10:00,
2013-05-11 21:20:00,59.0,55.8,29.85,WSW,248,1.0,4.0,89,0.00,,,0.17,Wunderground v.1.15,2013-05-12 01:20:00,
2013-05-11 21:30:00,59.2,55.6,29.85,SW,225,3.0,3.0,88,0.00,,,0.17,Wunderground v.1.15,2013-05-12 01:30:00,
2013-05-11 21:35:00,59.0,55.1,29.85,WSW,242,1.0,3.0,87,0.00,,,0.17,Wunderground v.1.15,2013-05-12 01:35:00,
2013-05-11 21:45:00,58.6,54.7,29.85,WNW,289,0.0,1.0,87,0.00,,,0.17,Wunderground v.1.15,2013-05-12 01:45:00,
2013-05-11 21:55:00,58.1,53.9,29.85,WNW,288,1.0,6.0,86,0.00,,,0.17,Wunderground v.1.15,2013-05-12 01:55:00,
2013-05-11 22:00:00,58.0,53.5,29.85,WNW,293,2.0,2.0,85,0.00,,,0.17,Wunderground v.1.15,2013-05-12 02:00:00,
2013-05-11 22:10:00,57.5,52.7,29.86,West,279,3.0,4.0,84,0.00,,,0.17,Wunderground v.1.15,2013-05-12 02:10:00,
2013-05-11 22:20:00,57.3,52.2,29.86,WSW,241,2.0,2.0,83,0.00,,,0.17,Wunderground v.1.15,2013-05-12 02:20:00,
2013-05-11 22:30:00,57.2,52.1,29.87,SW,229,3.0,3.0,83,0.00,,,0.17,Wunderground v.1.15,2013-05-12 02:30:00,
2013-05-11 22:40:00,57.2,51.8,29.87,West,278,2.0,2.0,82,0.00,,,0.17,Wunderground v.1.15,2013-05-12 02:40:00,
2013-05-11 22:45:00,57.0,51.6,29.87,WSW,251,1.0,2.0,82,0.00,,,0.17,Wunderground v.1.15,2013-05-12 02:45:00,
2013-05-11 22:55:00,56.7,51.3,29.87,SW,227,2.0,5.0,82,0.00,,,0.17,Wunderground v.1.15,2013-05-12 02:55:00,
2013-05-11 23:05:00,56.6,51.2,29.88,WSW,254,5.0,5.0,82,0.00,,,0.17,Wunderground v.1.15,2013-05-12 03:05:00,
2013-05-11 23:10:00,56.3,50.5,29.88,West,266,4.0,4.0,81,0.00,,,0.17,Wunderground v.1.15,2013-05-12 03:10:00,
2013-05-11 23:20:00,56.0,50.6,29.87,SW,219,2.0,2.0,82,0.00,,,0.17,Wunderground v.1.15,2013-05-12 03:20:00,
2013-05-11 23:25:00,55.9,50.5,29.88,NW,306,3.0,3.0,82,0.00,,,0.17,Wunderground v.1.15,2013-05-12 03:25:00,
2013-05-11 23:30:00,55.7,50.3,29.88,SW,215,2.0,2.0,82,0.00,,,0.17,Wunderground v.1.15,2013-05-12 03:30:00,
2013-05-11 23:40:00,55.6,50.2,29.88,WNW,301,1.0,1.0,82,0.00,,,0.17,Wunderground v.1.15,2013-05-12 03:40:00,
2013-05-11 23:50:00,55.6,50.5,29.88,NW,309,1.0,1.0,83,0.00,,,0.17,Wunderground v.1.15,2013-05-12 03:50:00,
2013-05-11 23:55:00,55.4,50.0,29.89,West,279,2.0,2.0,82,0.00,,,0.17,Wunderground v.1.15,2013-05-12 03:55:00,